Погода в Ногкау

Россия / Республика Северная Осетия — Алания     43°05′43″N   44°17′28″E
темп.,
°C
ветер,
м/с
пор.,
м/с
влажн.,
%
обл.,
%
осадки,
мм/ч
давл.,
гПа
погр.,
м
6 марта, сб
сб600:00+2ююз33430 0.0 102137
03:00+2ююз44390 0.0 102245
06:00+2ююз443641 0.0 102148
09:00+8юз233633 0.0 1019123
12:00+11ссв12380 0.0 1016454
15:00+11всв133717 0.0 1014691
18:00+6ююз4543100 0.0 101584
21:00+5ююз5640100 0.0 1016118
7 марта, вс
вс700:00+4ююз4543100 0.0 1015104
03:00+2ююз3351100 0.0 101756
06:00−3ссз239788 1.8 1020224
09:00−3ссв449594 3.9 1022404
12:00−4с3389100 2.5 1021511
15:00−3ссв2274100 3.4 1021679
18:00−4св1176100 0.3 102256
21:00−5в017698 0.3 102429
8 марта, пн
пн800:00−6зсз11775 0.0 102370
03:00−7ююз11812 0.0 102338
06:00−7ссз01810 0.0 102235
09:00−4ссв22730 0.0 1021361
12:00−2ссв227248 0.0 1018550
15:00−1ссв226764 0.1 1016655
18:00−2сз127578 0.1 101663
21:00−3ююв118088 0.1 101835
9 марта, вт
вт900:00−4юз117870 0.0 101822
03:00−4ююз007778 0.0 101821
06:00−4юз017879 0.0 101926
09:00−2ссв217572 0.0 1018361
12:000ссв227244 0.1 1017650
15:00+1св216647 0.3 1016825
18:000ссз127278 0.2 101842
21:00−2зюз228287 0.4 1022167
10 марта, ср
ср1000:00−4юз227778 0.7 102387
03:00−5ссз119179 2.4 1024132
06:00−6ссв229789 1.7 1025197
09:00−5св228995 2.1 1023352
12:00−3св338391 0.3 1021548
15:00−2св338096 0.7 1019635
18:00−3св2387100 0.4 1019226
21:00−4всв1188100 0.6 101933